Wind_Speed
26 25 24 24 24 23 21 20 18 16 15 13 13 12 10 10 10 10 9 9 8 7 6 7 8 8 6 6 6 7 7 8 9 9 10 10 11 11 11 10 9 9 10 11 11 12 13 15 15 15 14 14 12 10 9 8 7 6 5 6 7 6 5 4 3 3 2 1 1 0 1 1 2 3 4 5 6 7 8 9 10 11 12 13 13
26 26 25 25 24 23 22 21 19 18 16 14 14 13 11 11 11 10 10 9 8 6 7 8 9 8 7 6 7 7 8 9 10 11 11 11 11 11 10 10 9 10 11 12 13 13 15 16 16 16 15 13 12 11 10 10 10 9 7 7 7 6 5 3 2 1 1 1 2 2 2 3 3 4 5 6 7 7 8 9 10 12 13 13 14
27 27 26 26 25 24 22 22 20 19 17 16 15 14 12 12 12 11 10 9 7 7 8 10 10 9 8 7 7 8 9 10 11 12 13 12 12 12 11 11 11 12 13 14 15 15 16 16 16 16 15 13 13 13 13 13 12 11 9 8 7 7 6 4 3 2 1 2 2 3 4 4 5 5 6 7 7 8 8 9 10 11 13 14 14
28 28 27 26 25 24 23 23 22 21 19 18 17 15 14 13 12 12 11 9 7 7 8 11 11 10 9 8 8 9 10 11 12 13 14 13 13 13 12 13 14 15 15 16 16 17 17 17 16 16 15 15 15 15 14 13 12 11 10 9 8 7 6 5 4 3 3 2 3 4 5 5 6 7 7 8 9 9 9 9 10 11 12 13 14
29 29 28 27 26 25 25 25 24 23 22 20 19 18 16 15 14 13 11 10 7 7 9 12 12 11 9 9 10 11 11 13 14 14 14 14 14 14 14 15 16 16 16 16 17 18 18 18 18 17 17 16 16 15 14 13 12 11 10 9 8 7 7 6 5 4 3 3 4 4 5 6 7 8 8 9 10 11 11 12 12 13 14 15 16
29 29 28 27 26 26 26 26 26 25 24 23 21 21 19 16 15 14 12 10 7 6 9 12 12 11 10 10 11 12 13 14 15 15 14 14 14 14 15 16 16 17 17 17 17 18 18 19 19 19 19 18 17 15 14 14 13 12 11 10 9 8 7 6 6 5 5 5 6 6 6 7 8 9 10 11 11 12 12 13 14 15 16 17 17
30 31 31 29 28 28 28 28 28 28 27 25 24 23 21 18 17 15 12 10 7 7 10 12 12 11 11 11 12 13 14 15 15 15 14 14 14 15 15 16 17 17 18 18 18 18 18 18 19 19 19 18 17 16 15 14 13 12 11 10 9 9 8 8 7 7 6 7 7 8 8 9 9 10 11 12 12 12 13 14 15 16 17 18 19
32 33 32 31 30 30 30 30 30 31 30 29 26 24 21 19 18 16 12 10 8 7 10 12 11 11 11 12 13 14 15 16 16 15 15 15 15 15 16 17 17 18 19 18 18 18 18 17 17 17 17 16 16 15 14 13 12 10 9 8 8 9 10 10 9 9 9 9 9 10 11 11 12 12 13 15 15 15 16 17 18 18 19 20 21
34 33 32 31 31 31 31 31 33 35 35 32 28 24 22 20 18 16 12 10 9 8 10 13 12 12 13 13 14 15 16 16 16 16 16 16 16 16 17 17 18 18 18 18 18 17 17 16 16 15 15 14 13 13 12 11 11 10 9 9 9 10 11 11 11 11 12 13 13 14 14 14 15 15 16 17 18 18 19 20 21 21 22 22 21
35 35 34 32 31 30 29 30 33 36 36 33 29 26 24 21 18 16 12 10 9 9 11 13 13 13 14 15 15 15 15 15 15 15 15 15 15 16 17 17 17 17 17 17 17 17 16 15 14 14 13 12 12 12 12 11 11 11 11 11 12 12 13 13 13 14 15 15 16 17 17 17 17 18 19 20 21 22 22 22 23 24 24 23 23
36 35 33 29 28 28 27 28 30 30 29 29 28 25 24 22 19 16 13 11 10 9 11 14 15 14 15 16 15 15 15 14 14 14 13 14 14 14 15 16 16 16 17 17 17 17 16 15 15 15 14 14 14 14 14 14 14 14 15 15 15 15 15 16 16 17 18 18 18 18 19 19 20 21 22 22 23 24 24 25 26 27 27 27 26
31 29 27 26 26 27 26 26 28 27 25 26 26 25 24 22 20 17 14 12 11 10 11 14 16 16 16 16 16 16 16 15 15 15 14 14 14 14 14 14 15 15 16 16 16 16 17 17 17 17 17 17 17 17 17 17 18 18 19 19 19 19 19 20 20 20 21 21 22 22 22 22 22 23 24 25 26 26 27 28 29 30 31 30 31
28 27 27 26 25 25 24 24 27 28 27 24 23 24 25 23 20 18 16 14 13 12 12 14 16 18 18 18 18 18 18 17 17 16 16 15 15 15 14 14 15 15 16 16 17 17 18 18 19 19 19 19 20 20 21 21 22 22 23 24 24 24 24 24 25 25 25 25 25 25 24 24 25 25 25 26 27 28 28 29 31 32 33 33 34
27 27 27 26 23 22 22 23 24 26 26 24 23 23 24 23 21 20 18 16 15 13 13 15 16 18 19 19 20 19 19 19 18 17 17 17 16 16 16 16 16 17 17 18 18 19 19 20 20 21 22 22 23 24 25 25 26 27 27 28 28 28 28 28 29 29 28 28 28 28 27 26 26 26 26 27 28 29 29 30 32 33 34 35 34
24 24 25 24 21 21 21 20 22 23 24 24 24 23 24 24 23 21 19 18 17 16 15 15 16 18 19 20 20 20 20 20 19 19 19 19 19 19 19 19 19 20 20 20 21 21 22 22 23 23 24 25 26 28 28 29 30 30 31 31 31 31 31 31 31 31 29 29 29 29 28 27 27 28 28 29 29 30 30 31 32 33 34 35 37
20 21 22 22 21 21 20 21 22 23 23 24 24 24 24 24 24 22 21 20 19 18 18 18 18 18 19 20 20 20 21 21 21 21 21 21 21 22 22 22 22 23 23 24 24 24 25 26 26 26 27 27 29 30 31 32 32 33 33 33 33 33 33 32 33 32 31 31 31 31 30 30 30 31 31 31 31 32 32 33 33 34 35 37 39
18 20 21 22 20 20 21 22 22 22 22 24 24 23 24 25 25 23 23 22 22 22 21 21 20 20 19 20 20 20 21 22 22 23 23 23 23 24 24 24 24 25 25 25 26 26 27 28 28 28 28 29 30 31 32 33 33 33 34 34 35 35 35 34 34 34 34 34 33 33 33 33 34 34 34 34 33 33 34 35 34 35 36 38 38
14 18 21 21 20 20 21 21 21 20 20 21 21 22 24 25 25 24 24 24 24 24 24 23 23 23 22 22 21 22 22 23 24 24 24 25 25 26 26 26 26 26 26 26 27 27 28 28 29 29 29 30 31 32 33 34 34 34 34 35 35 36 35 34 35 35 35 36 36 36 36 37 37 37 36 35 35 35 36 36 36 36 36 36 35
9 11 15 18 19 19 18 17 19 20 20 20 21 23 24 23 22 24 26 27 27 26 26 26 26 25 25 24 23 23 24 25 25 26 26 26 27 28 28 29 29 29 29 29 29 30 30 31 31 32 32 32 33 33 34 34 35 34 34 35 35 35 34 34 35 36 36 37 38 38 39 39 39 39 38 37 37 37 38 38 38 37 36 35 34
8 9 12 15 17 17 15 14 15 15 16 18 20 22 22 22 20 19 20 23 26 26 28 30 30 30 30 29 26 25 26 27 27 28 29 30 30 31 32 32 32 33 33 33 33 33 33 34 34 34 35 35 35 35 35 36 36 36 36 37 37 37 38 39 40 40 40 41 41 41 40 40 40 40 39 38 39 39 40 40 39 38 37 37 37
5 6 8 12 14 12 11 11 12 11 12 14 15 15 17 19 19 17 15 17 20 22 24 28 29 29 30 30 29 28 28 29 31 32 33 34 34 35 36 36 36 36 36 36 36 36 37 37 37 36 37 37 37 37 38 38 39 40 40 41 42 43 44 45 45 45 45 45 45 44 43 42 41 40 40 40 41 41 41 40 39 38 38 38 37
3 4 6 8 9 9 9 11 12 13 13 14 14 14 15 16 18 18 17 18 19 20 21 23 23 23 24 25 28 31 32 34 36 37 37 37 37 37 38 39 39 40 40 40 40 40 40 40 40 39 39 40 40 41 42 43 45 46 46 47 47 47 48 48 48 47 47 47 47 47 46 44 43 42 42 42 42 41 40 40 39 39 39 37 35
6 7 8 9 10 11 12 13 15 16 17 17 18 17 17 17 18 19 20 20 21 21 21 21 21 21 22 24 28 32 34 36 38 37 37 37 38 38 39 40 41 42 42 43 43 43 43 43 43 43 44 45 46 47 47 48 49 50 50 50 50 50 50 51 51 49 49 48 48 47 45 43 42 42 42 42 41 40 39 40 39 39 38 36 34
9 10 11 12 14 14 15 16 17 18 19 20 20 20 19 19 20 20 21 22 22 22 23 23 22 22 23 25 28 30 32 33 35 35 36 37 38 39 41 42 43 44 45 46 46 47 48 48 48 49 49 50 50 50 50 50 51 51 51 52 52 53 54 54 54 52 51 50 49 47 45 43 42 42 42 41 39 38 38 38 37 36 35 34 32
9 10 12 13 14 14 15 16 17 18 18 19 20 20 20 21 21 22 22 23 23 24 24 25 25 25 26 27 29 30 32 34 35 37 38 39 40 41 43 44 45 47 48 49 50 51 52 52 52 53 52 52 52 53 53 53 52 52 52 53 53 54 55 55 55 54 53 52 50 47 45 42 41 41 41 40 39 38 37 37 37 36 35 33 33
11 12 12 13 14 15 15 16 17 18 18 19 20 20 21 21 22 23 23 24 24 25 26 26 27 28 29 30 31 32 34 35 37 38 40 41 42 43 44 45 47 48 50 51 52 54 54 55 55 55 55 54 54 54 53 53 52 52 52 52 52 52 53 53 53 53 52 50 49 46 44 41 40 40 40 39 38 37 36 36 37 36 34 33 33
14 15 16 16 17 17 17 17 18 19 19 20 21 21 22 22 23 24 24 25 26 27 28 29 30 30 31 32 33 34 36 37 38 40 41 42 43 44 45 46 47 48 49 51 52 53 54 55 55 55 55 54 53 52 52 51 51 50 50 50 50 50 50 50 51 50 49 49 47 45 43 41 40 40 39 38 37 37 37 37 36 35 33 32 32
16 17 17 18 18 18 19 19 19 20 20 21 22 23 24 24 25 27 27 28 29 30 31 32 33 34 35 36 36 37 38 38 39 40 41 42 43 44 44 45 45 46 46 47 49 50 50 51 51 51 52 51 50 49 49 49 48 48 47 47 47 47 47 48 48 49 48 47 46 44 42 40 40 39 39 39 38 38 37 37 37 35 33 31 30
16 16 17 18 18 19 19 20 20 21 22 23 24 25 26 28 29 30 31 32 33 34 35 36 36 37 37 37 37 37 37 37 37 38 38 39 40 40 41 41 41 41 42 43 44 44 44 44 45 45 46 46 45 45 44 44 44 43 43 43 42 42 43 43 45 45 45 44 44 42 41 41 40 39 39 39 39 39 38 38 39 37 33 30 28
16 17 18 19 19 20 21 22 22 23 24 25 27 28 29 30 31 32 33 33 34 35 35 36 36 36 36 35 35 35 34 33 32 33 33 33 34 34 34 35 36 36 37 38 39 39 40 40 41 42 42 43 43 43 43 42 42 41 41 41 41 40 40 39 40 41 41 42 42 41 41 41 42 42 42 42 41 40 40 39 38 35 31 28 27
18 19 20 20 21 22 23 23 24 24 25 25 26 28 29 30 30 30 31 31 32 32 32 32 32 32 32 31 30 31 31 30 29 29 29 29 29 30 31 32 33 34 35 36 37 38 39 40 41 42 42 43 43 43 43 43 43 42 41 41 41 41 40 39 38 38 38 39 40 40 40 40 41 42 42 42 43 42 41 39 37 33 30 28 27
19 20 20 21 21 22 22 23 23 23 23 23 24 24 25 27 27 27 27 27 28 28 27 27 26 25 25 25 25 25 26 26 27 27 27 27 28 29 30 31 32 34 35 36 36 37 38 39 39 40 40 40 40 41 41 42 42 41 41 41 40 40 40 39 38 37 37 36 37 39 41 41 42 41 40 40 41 42 41 39 37 33 30 29 26
18 18 19 19 20 20 20 21 21 21 21 21 21 21 22 23 24 25 25 24 24 23 22 22 21 21 21 22 22 22 22 23 24 26 27 28 29 30 31 32 32 32 33 33 33 34 34 34 34 34 34 34 34 35 36 37 37 38 38 39 39 39 39 39 38 37 36 35 35 36 39 41 43 44 42 39 38 37 37 36 36 33 30 27 24
15 15 16 16 16 17 17 18 18 19 19 19 19 19 19 18 18 19 21 22 21 20 19 19 19 19 20 20 21 21 22 23 24 25 26 27 28 29 29 29 29 29 28 27 27 27 26 27 27 28 28 29 29 30 31 32 33 33 34 35 37 38 38 38 37 35 34 33 33 33 35 37 39 40 40 39 39 38 36 33 31 29 24 22 22
12 12 12 13 13 14 15 15 16 16 17 17 17 17 17 16 15 15 16 17 18 18 18 18 18 18 19 20 21 21 22 23 23 24 25 25 25 25 25 25 25 24 23 22 22 22 22 22 23 23 25 26 27 28 29 29 30 30 30 31 33 35 35 35 34 32 31 30 30 31 31 31 31 33 35 37 38 37 32 26 22 20 18 19 20
9 10 11 11 12 12 13 13 14 14 15 15 15 14 14 14 14 13 13 13 14 16 17 17 18 18 19 19 20 21 21 22 22 23 23 23 22 21 21 21 21 21 20 20 20 20 21 21 22 22 23 24 25 26 27 28 28 28 28 28 29 30 30 29 28 27 26 26 27 28 27 27 28 29 32 35 35 31 24 20 18 17 17 18 19
9 10 10 10 10 11 12 12 12 13 13 13 12 11 10 10 11 11 11 12 13 14 15 16 17 18 18 19 19 20 21 21 22 22 22 20 18 18 19 19 19 18 18 18 19 19 20 20 20 21 22 23 24 25 25 26 26 26 25 25 24 23 22 22 22 22 21 22 25 26 26 27 28 29 31 33 31 24 19 17 16 15 16 17 18
9 10 10 10 10 10 10 11 12 12 11 11 10 9 8 8 9 10 11 12 12 13 14 14 15 15 16 17 19 20 21 21 21 21 20 19 18 18 19 19 18 17 16 17 17 18 19 19 20 21 22 23 23 23 23 23 23 22 20 18 18 17 16 16 16 15 13 14 17 22 25 27 28 28 28 28 25 20 16 15 14 13 15 17 18
10 9 9 10 10 9 10 11 12 11 10 9 9 8 8 8 9 10 11 11 12 13 13 13 13 14 15 16 17 19 19 20 20 19 19 18 19 19 19 19 19 18 18 17 17 17 18 19 20 22 22 22 21 20 19 19 19 17 15 15 14 12 9 7 6 5 4 4 9 16 21 23 22 21 20 20 19 15 13 14 13 14 15 17 19
9 9 9 10 9 9 10 11 11 10 10 10 9 9 9 9 10 11 11 12 13 13 12 12 12 13 13 14 15 15 16 16 16 16 17 17 18 19 19 19 19 19 19 19 18 17 18 19 20 20 20 20 18 17 16 15 15 15 13 12 10 8 6 5 5 6 7 9 11 14 16 16 15 15 15 15 15 14 13 13 13 14 16 17 18
8 9 9 10 10 9 10 11 11 10 10 10 10 10 10 10 11 12 13 13 13 13 12 12 12 11 11 12 12 12 13 13 14 14 15 15 16 17 17 18 18 19 19 19 19 19 19 19 19 19 19 18 17 15 14 13 13 12 10 8 7 7 8 8 7 7 7 9 10 11 12 13 13 13 14 15 15 14 13 13 13 14 16 17 17
8 9 9 9 9 10 10 10 10 10 10 10 10 10 10 10 11 12 13 13 12 12 11 11 10 10 10 10 10 10 11 12 13 13 13 13 14 15 16 16 17 17 18 18 19 19 19 19 19 18 17 16 15 14 12 10 10 7 6 6 7 9 11 10 10 10 11 10 10 11 12 12 13 14 15 15 15 13 13 13 14 16 17 16 14
8 9 9 9 9 9 10 9 9 10 10 10 9 9 9 9 10 11 11 11 11 10 10 9 9 9 9 8 8 9 11 12 13 13 12 12 13 13 14 14 15 15 16 17 17 18 18 18 17 16 15 14 12 10 7 5 4 3 5 5 5 7 8 8 8 9 10 10 11 11 12 12 13 13 13 13 13 13 14 16 17 16 14 12 11
8 9 8 8 8 9 9 8 8 9 9 9 9 9 9 8 8 8 9 9 9 8 8 8 8 8 8 7 8 10 12 13 13 13 13 12 11 12 12 12 12 13 13 14 14 14 15 16 14 12 11 8 6 6 7 5 3 4 4 3 3 5 6 7 8 9 10 11 12 13 14 14 15 15 15 16 16 16 16 15 14 13 11 10 10
8 8 7 7 7 7 7 6 7 7 8 9 9 8 7 7 6 6 7 7 7 7 6 7 7 7 7 7 9 10 12 13 13 12 11 10 10 10 9 10 10 10 10 10 9 10 11 12 12 11 9 7 6 7 8 6 4 3 2 2 4 5 6 7 8 9 10 12 13 14 15 16 16 16 16 15 14 13 12 11 10 10 9 9 9
8 7 7 6 7 6 6 5 6 7 7 8 8 7 6 5 4 4 5 5 6 6 6 6 7 7 8 8 9 10 11 12 12 12 12 11 11 10 10 9 9 8 6 6 6 6 7 10 12 12 11 10 10 10 9 7 6 4 1 1 3 4 4 5 5 6 8 9 10 11 12 12 12 11 11 10 10 10 10 9 8 8 8 8 9
8 7 7 7 7 6 5 5 6 6 6 7 7 6 4 4 3 4 4 5 5 6 6 6 7 7 8 9 10 10 11 12 12 12 12 12 12 11 10 10 9 6 4 5 6 6 8 10 12 12 12 11 11 10 9 7 6 5 3 3 4 4 4 4 4 5 5 6 7 8 8 9 9 9 10 10 10 9 8 7 7 7 8 9 10
8 7 7 8 7 6 6 6 6 5 5 5 5 4 3 3 3 3 4 5 6 6 6 7 7 8 8 9 10 11 11 11 11 10 10 11 11 11 10 9 8 7 6 7 8 9 9 9 9 9 9 8 7 7 6 6 6 6 7 7 6 5 4 3 3 4 4 4 5 6 7 8 8 9 9 9 8 7 6 6 6 6 7 8 10
8 8 9 9 8 7 6 6 6 5 4 4 4 4 4 4 4 4 5 5 6 6 7 7 7 7 8 9 10 10 10 10 9 8 8 8 8 9 9 9 8 8 8 8 7 7 6 6 6 6 6 7 6 6 6 6 7 8 9 8 6 5 3 2 2 3 3 3 4 6 6 7 7 7 7 6 5 5 5 5 6 7 7 8 9
9 9 10 10 8 7 7 6 5 4 3 3 3 4 5 5 5 5 5 6 6 6 7 7 7 8 9 9 9 8 8 7 6 5 6 6 6 6 6 6 6 6 6 6 5 4 4 5 5 6 7 7 7 7 7 7 7 7 7 7 6 5 3 2 1 1 2 3 4 5 6 7 7 6 5 4 4 4 4 4 5 7 8 8 9
10 10 11 10 9 8 7 6 5 3 2 2 2 4 5 5 5 5 5 5 6 6 6 7 7 7 8 8 8 8 7 6 5 5 6 6 6 6 6 5 5 5 5 5 5 5 5 5 6 7 7 8 8 8 8 6 5 4 4 4 5 5 4 3 2 1 3 4 5 5 6 6 5 4 3 3 3 3 3 3 4 6 7 7 8
Wind_Direction
194 199 201 203 206 208 209 211 213 217 221 229 241 250 259 274 285 290 295 301 306 297 267 241 235 236 235 231 226 225 223 212 201 195 193 194 198 202 208 211 207 199 192 182 177 176 174 175 177 176 175 174 172 175 180 175 169 167 159 141 128 119 117 118 124 137 144 127 95 164 253 280 299 313 316 312 309 306 304 307 311 316 322 325 327
196 200 203 206 209 210 211 213 216 219 223 231 242 251 260 273 281 283 286 290 294 282 253 235 232 232 230 225 218 215 213 206 200 195 192 195 199 204 208 206 197 190 183 177 174 175 175 175 175 173 172 171 167 164 157 151 149 151 149 139 133 131 131 138 152 172 225 319 324 297 284 293 301 307 312 311 311 311 312 313 315 317 321 322 322
196 201 205 208 211 213 215 218 222 223 226 233 241 249 258 267 274 277 279 281 282 268 242 230 228 226 224 221 212 205 204 201 198 195 193 195 200 203 202 198 189 181 177 174 172 172 174 175 174 173 169 165 159 152 147 145 146 148 150 147 143 141 141 149 164 186 231 272 286 288 291 299 308 315 320 322 323 323 323 322 320 319 320 318 315
197 201 206 210 212 213 216 221 225 225 227 232 240 248 255 263 268 270 271 273 271 257 231 222 223 223 222 218 205 198 197 195 195 195 193 195 198 198 195 190 183 177 174 173 171 171 173 173 172 169 163 158 153 148 146 146 147 149 152 153 153 153 154 160 170 181 197 226 255 275 290 297 305 314 318 321 323 323 322 319 316 314 311 310 309
200 203 207 211 212 214 218 221 223 225 226 230 237 245 251 259 265 265 264 265 263 245 221 215 219 220 220 217 203 193 193 192 193 193 192 192 192 191 189 185 181 175 172 173 173 173 172 169 166 161 157 155 152 150 151 152 154 157 160 164 166 166 169 175 183 194 208 232 251 267 281 290 300 310 315 317 317 317 316 314 309 307 304 304 303
202 205 207 211 214 217 221 223 225 226 227 229 234 241 247 253 259 260 259 259 253 233 212 208 213 217 215 212 201 191 190 191 191 191 190 189 188 187 186 183 177 173 171 172 172 171 170 167 163 161 160 160 160 160 162 165 168 171 174 177 179 181 186 192 199 210 223 240 254 265 275 285 294 302 306 308 308 309 309 306 303 303 302 302 300
205 205 205 208 212 217 221 225 228 228 228 229 231 238 244 250 252 252 251 251 244 224 209 204 207 210 207 205 198 191 190 190 190 189 188 186 185 183 182 179 175 172 171 170 169 168 168 168 168 168 169 172 173 174 177 181 184 186 188 189 191 195 201 207 213 224 235 248 260 267 273 278 283 288 292 293 296 299 298 296 297 300 300 301 301
209 208 207 207 209 216 222 226 229 229 229 230 231 235 242 247 247 244 243 244 238 220 209 204 201 200 199 198 195 192 191 189 188 189 187 186 185 182 179 177 175 174 174 172 172 171 172 174 176 178 181 183 186 187 191 194 197 200 204 206 209 212 216 221 230 242 255 265 271 274 274 275 276 279 281 285 289 291 291 293 295 297 298 299 301
212 212 211 211 213 219 223 227 230 228 227 228 228 231 237 240 241 242 239 239 236 221 209 205 200 194 192 193 194 194 194 193 192 191 189 188 186 182 179 178 177 177 177 177 178 180 182 186 188 190 192 194 198 201 204 208 210 215 221 226 230 231 232 237 247 259 269 276 279 281 281 281 280 280 280 282 283 285 287 290 292 292 292 294 297
214 214 214 216 218 221 224 230 235 233 230 230 228 228 232 233 235 240 238 237 236 221 210 207 202 196 193 195 197 198 198 199 199 199 197 195 192 188 186 185 184 184 185 186 187 189 193 198 202 205 208 211 216 220 224 227 230 233 238 242 244 246 247 251 257 264 272 276 279 281 282 284 283 281 280 280 280 281 284 286 287 287 288 290 293
217 216 215 216 217 219 223 232 241 241 237 236 233 230 229 227 231 238 236 235 236 223 210 208 206 202 200 200 202 203 203 204 205 206 208 207 205 202 199 198 198 197 198 199 200 201 204 209 215 219 223 225 228 232 235 239 243 248 251 253 255 257 259 261 264 267 270 272 274 276 279 282 283 282 281 281 281 282 283 284 285 287 288 289 291
212 209 208 212 216 217 221 229 237 241 240 237 233 228 224 222 229 234 229 227 230 222 213 211 209 207 206 205 206 207 208 210 210 211 213 214 216 216 214 214 215 215 216 217 218 218 219 221 225 229 232 234 236 240 243 247 252 255 258 261 263 264 266 268 270 271 273 274 275 277 279 281 282 281 281 281 281 282 283 285 287 287 288 288 289
201 202 207 212 216 216 217 222 229 235 235 230 223 218 217 221 227 228 224 222 222 217 216 216 214 214 212 210 210 210 212 214 214 214 216 218 221 224 225 227 229 230 231 232 233 234 234 235 236 238 240 243 246 249 252 255 258 260 263 265 267 270 272 273 274 275 276 278 279 281 282 282 281 281 280 280 280 281 284 286 286 286 286 286 288
200 206 208 209 210 211 214 220 223 226 223 214 208 209 214 220 224 223 221 219 216 213 215 217 218 220 219 217 216 215 217 219 220 220 222 223 226 229 231 234 236 237 239 240 241 243 245 246 247 248 250 252 255 257 259 260 262 263 265 267 269 271 273 274 275 276 277 278 279 280 280 280 279 279 279 280 281 282 284 286 286 286 286 285 286
197 199 198 200 204 208 214 218 218 217 212 206 205 211 218 222 222 221 221 220 217 215 215 216 219 221 223 223 223 222 222 223 225 227 228 229 231 232 234 236 238 239 241 242 244 246 249 251 253 255 257 260 262 264 266 266 267 268 269 270 270 271 271 273 273 274 275 276 277 277 278 278 278 278 279 280 281 282 283 284 284 285 285 283 283
191 191 192 196 202 207 211 214 213 210 209 211 214 216 221 225 224 221 220 223 223 220 218 218 218 219 221 224 226 226 227 227 228 229 231 233 234 235 237 238 239 241 242 244 245 248 250 252 254 256 258 261 263 266 268 269 271 272 273 273 273 273 273 274 274 275 276 276 275 276 278 279 279 279 281 281 281 281 282 283 284 285 285 284 282
194 193 197 199 200 205 209 210 211 210 211 218 221 221 223 227 228 226 224 225 226 226 225 222 220 219 220 221 224 227 229 231 231 232 233 234 236 237 237 239 240 241 243 245 247 249 251 254 255 257 258 260 262 264 266 268 270 271 272 273 274 274 274 275 276 277 278 278 277 279 280 280 280 280 281 282 282 282 283 285 286 287 286 284 282
195 196 203 202 201 207 210 206 205 207 213 222 226 228 228 226 226 228 229 229 230 230 230 229 226 225 223 224 227 230 231 234 235 236 237 238 240 241 242 243 244 245 246 248 250 253 255 257 259 261 261 262 264 266 267 269 269 270 271 272 272 273 275 277 278 278 278 278 279 280 280 280 280 281 282 282 282 283 284 285 286 286 283 281 280
179 188 199 201 204 213 218 213 208 207 211 220 226 231 236 236 234 231 229 233 236 237 237 238 236 234 232 231 232 235 237 238 240 241 242 243 244 246 247 248 249 250 250 251 253 254 256 258 259 261 262 262 263 265 266 268 269 269 270 270 270 271 273 273 273 274 275 275 276 277 278 280 281 282 283 282 282 283 284 285 285 283 280 278 277
175 180 193 203 209 217 223 227 228 220 214 220 227 231 237 247 253 245 233 235 242 246 248 247 243 241 239 236 237 240 242 243 246 246 247 247 248 249 250 250 251 252 252 252 252 253 254 256 257 259 261 261 262 263 264 265 267 268 269 270 272 274 275 274 273 273 274 274 276 277 278 280 282 282 281 281 281 282 283 283 284 282 279 277 276
181 185 199 208 214 222 227 237 246 247 240 239 242 242 240 247 258 260 251 248 251 255 257 256 252 249 244 237 236 241 246 248 250 251 250 250 251 251 251 251 252 252 253 253 253 252 252 253 254 257 259 261 263 264 265 266 267 268 269 271 274 275 275 274 273 273 273 274 276 278 279 280 281 281 280 280 280 280 281 281 281 280 279 278 277
228 227 225 224 227 233 236 238 242 246 249 252 256 257 255 254 259 263 263 263 263 263 266 267 267 266 259 247 241 244 249 251 252 251 251 251 251 251 251 252 253 253 253 253 253 253 253 253 255 256 259 261 264 265 267 268 269 269 271 273 274 274 273 272 271 270 271 272 274 276 277 278 278 279 279 279 279 280 280 280 279 278 277 277 277
250 248 246 246 244 242 242 244 246 250 254 258 260 262 263 263 263 264 265 267 268 268 269 270 269 268 265 258 254 253 255 257 257 257 256 257 257 257 257 257 257 257 257 256 255 255 256 256 258 259 261 263 265 265 266 268 269 270 271 273 273 273 273 272 272 272 272 273 274 275 276 276 277 278 278 278 278 278 277 276 276 275 274 274 274
260 259 258 256 255 254 254 254 257 259 261 263 265 267 268 267 267 268 269 269 270 270 270 271 270 268 264 261 261 261 262 263 264 264 264 264 264 264 264 264 264 263 263 263 262 262 263 263 264 265 268 269 270 270 270 270 270 270 271 272 272 273 272 273 273 273 274 274 274 275 275 276 276 276 276 276 276 274 273 273 273 272 272 273 274
264 264 264 263 262 263 263 261 262 263 263 265 266 267 268 269 269 269 269 270 270 271 271 271 271 270 268 265 264 265 265 266 266 267 267 267 267 267 267 268 269 269 269 269 270 270 271 271 272 273 274 275 275 275 274 274 273 272 272 271 271 271 271 272 273 273 273 273 273 273 273 273 273 274 274 273 273 272 271 270 269 269 271 274 274
277 276 277 276 274 273 272 271 270 269 269 270 270 271 271 271 270 270 271 271 272 272 273 273 272 272 271 270 269 268 268 268 268 268 269 269 269 269 269 270 270 271 272 273 273 274 274 276 276 277 277 277 277 276 276 275 275 274 273 272 271 270 270 270 270 271 271 270 270 270 270 269 269 269 268 268 268 268 267 267 267 268 269 272 275
274 277 278 279 278 277 275 274 274 274 274 274 274 275 276 275 276 277 276 277 277 277 277 276 276 276 275 274 274 273 273 272 272 272 272 272 272 273 273 273 273 273 274 274 275 275 276 277 278 278 278 278 278 278 278 277 276 275 274 273 272 271 271 270 270 270 269 268 268 267 266 265 264 264 264 265 265 265 265 266 266 267 268 271 272
270 271 272 273 274 273 273 273 273 274 274 275 275 276 276 276 277 278 278 279 279 279 279 279 278 278 278 277 277 278 278 278 278 277 277 278 278 278 278 278 279 279 279 278 278 278 279 279 279 280 280 280 280 280 279 279 278 277 275 274 272 271 271 270 270 269 268 268 267 265 263 262 262 262 262 262 262 263 264 265 267 268 269 268 265
273 272 271 271 271 271 271 272 273 274 275 275 275 276 276 276 276 276 277 278 278 278 279 279 280 280 281 281 281 282 283 283 282 282 282 282 282 282 282 282 282 282 282 282 282 282 282 282 283 283 283 283 283 282 282 281 280 279 278 277 275 273 271 270 269 269 268 266 263 261 260 261 260 259 260 260 260 261 262 265 267 263 259 257 258
273 273 272 272 272 273 273 274 274 276 277 277 278 278 278 278 277 277 278 278 278 279 280 281 282 283 284 285 285 285 285 285 284 284 284 284 284 285 285 285 284 284 283 283 284 284 283 283 283 284 284 284 284 283 283 282 281 280 280 279 278 276 274 272 271 269 267 264 261 257 256 258 259 259 259 258 258 260 262 265 263 256 252 253 257
277 277 278 278 278 279 280 280 280 281 282 282 283 282 282 281 280 280 281 281 280 280 281 282 283 283 284 285 285 285 285 285 285 285 286 286 287 287 287 287 287 286 285 285 285 284 283 282 282 281 281 281 281 281 281 280 280 279 278 278 277 277 276 274 273 271 268 266 261 255 251 254 258 259 258 256 255 256 258 259 257 254 256 258 256
283 283 284 285 286 286 287 287 287 288 288 288 288 288 287 287 286 286 285 285 284 284 284 285 285 285 285 285 285 285 286 286 287 289 290 290 291 291 291 291 290 290 289 288 287 286 285 284 284 283 283 283 282 281 281 280 279 278 276 275 275 274 274 273 273 272 270 267 263 257 252 250 252 256 260 262 259 252 248 249 248 249 252 253 251
282 284 285 286 287 288 290 291 293 294 294 294 293 292 292 291 291 291 290 290 289 289 289 289 289 288 288 287 286 287 288 290 292 293 294 296 296 297 297 296 295 293 292 291 290 289 288 288 288 287 287 287 286 285 284 283 281 279 276 274 272 271 270 270 270 271 271 268 265 261 254 250 251 252 256 262 259 247 236 235 236 237 239 243 247
278 280 282 284 286 290 294 296 297 298 298 297 295 293 290 289 288 288 289 290 290 290 289 289 288 288 288 289 290 291 293 294 295 296 296 298 299 300 301 301 300 298 297 295 295 294 293 292 292 292 292 291 291 290 289 287 285 282 278 274 271 269 267 267 267 268 269 268 265 261 255 253 252 251 252 256 252 237 224 221 224 226 230 237 245
274 277 280 284 290 296 299 300 300 300 299 297 293 289 285 282 279 278 281 285 288 290 290 290 289 290 291 292 292 293 294 294 295 297 298 300 302 305 306 307 306 304 302 302 302 302 301 299 298 298 298 298 296 295 293 291 288 286 282 277 273 269 267 266 266 266 267 267 264 258 252 248 249 251 252 249 238 226 219 218 221 223 230 238 246
269 273 277 284 292 297 297 297 298 298 296 294 290 285 281 277 274 274 275 277 280 283 286 287 288 289 290 291 291 291 292 293 295 298 300 301 303 305 308 311 311 308 305 306 307 307 306 305 305 305 304 303 302 300 298 295 292 289 285 280 276 272 268 266 265 264 265 264 259 252 245 242 244 246 244 234 223 215 213 215 218 224 233 240 248
260 264 271 280 287 289 289 291 293 295 295 294 293 291 287 282 279 277 276 274 274 275 277 280 284 286 289 292 293 294 295 297 298 299 300 302 302 303 306 312 315 312 307 306 307 308 308 307 307 308 307 307 305 303 301 298 295 291 286 282 277 271 265 260 259 260 262 261 254 245 237 233 230 227 225 221 217 212 210 212 217 227 238 247 256
251 257 266 274 277 279 284 290 293 295 295 296 297 296 293 289 285 280 276 273 273 273 275 277 281 285 289 293 296 297 299 300 301 302 304 307 309 308 308 311 313 314 312 312 312 312 311 310 310 310 309 308 306 304 302 300 297 292 287 281 274 264 256 252 251 252 256 256 246 232 219 210 206 205 209 213 214 209 208 216 225 235 245 256 264
250 257 265 270 274 279 287 291 293 296 296 294 292 289 287 286 283 280 278 276 275 276 278 281 285 289 293 296 298 300 302 303 304 305 305 307 310 312 312 312 313 316 318 320 319 317 313 310 310 311 310 308 307 306 307 306 301 294 288 282 271 257 247 243 234 214 191 185 198 199 196 194 194 198 206 215 218 215 217 226 235 244 255 265 272
253 259 264 269 274 281 286 288 291 296 297 293 289 285 282 281 281 281 281 282 282 283 286 290 295 299 300 301 302 303 305 307 307 305 303 303 307 311 314 316 318 320 322 324 324 323 319 315 313 312 310 308 307 309 312 312 305 296 290 282 268 241 213 196 175 161 159 166 176 185 192 197 203 208 215 224 229 229 228 231 239 249 260 269 275
255 260 265 270 276 281 285 287 292 297 297 293 289 285 281 280 281 281 282 283 286 291 296 301 305 306 306 308 310 312 314 315 313 309 305 303 304 309 313 317 320 322 323 325 327 327 325 321 319 317 315 313 311 310 313 313 305 292 277 263 242 213 198 193 190 193 200 201 201 206 211 216 221 226 228 230 230 229 229 235 245 256 265 271 271
257 262 265 269 274 281 285 290 295 297 296 294 292 289 288 285 281 280 283 287 292 298 304 307 309 312 316 320 325 329 330 327 323 319 313 308 305 307 311 316 320 320 321 323 326 326 326 325 325 327 328 325 317 308 305 309 308 285 235 212 208 207 208 213 220 225 227 227 226 227 228 227 228 227 227 227 228 232 241 251 259 265 266 262 253
261 265 267 269 275 281 286 292 297 298 299 301 302 303 300 291 282 282 288 294 298 303 307 309 313 318 323 330 338 343 342 338 333 329 324 316 310 309 310 315 318 319 318 320 322 323 326 329 332 335 336 330 323 319 316 302 277 222 187 187 200 207 214 223 230 230 233 236 238 237 235 233 231 229 230 237 246 256 262 264 263 260 252 239 230
265 266 266 269 275 280 286 293 297 300 305 311 314 313 307 295 288 291 297 300 302 306 309 313 318 323 329 337 342 345 347 346 343 338 331 323 318 315 314 316 318 317 316 317 317 321 328 336 343 348 349 343 351 30 53 76 135 153 150 174 212 221 226 233 237 238 240 241 240 237 235 234 235 239 246 253 258 261 259 254 247 237 223 216 222
267 266 265 268 272 277 282 290 297 304 311 317 318 316 311 304 302 304 306 305 307 310 315 319 322 325 330 335 337 340 348 354 355 354 353 352 348 342 335 329 324 318 313 312 313 318 332 347 1 13 19 31 54 59 55 62 84 98 112 213 234 239 239 238 240 242 242 241 238 236 233 232 233 236 239 242 242 238 229 219 212 207 205 210 221
268 266 263 263 265 267 272 283 294 307 315 321 322 320 315 312 313 316 317 315 314 318 325 327 325 324 328 332 334 340 352 1 5 9 15 18 16 10 3 354 346 336 325 323 328 336 355 13 24 28 33 45 57 59 56 61 71 73 72 251 261 269 265 260 260 258 253 247 242 237 232 228 222 216 210 204 197 191 186 183 187 194 201 210 219
270 264 257 254 255 256 262 275 290 305 317 324 328 328 323 320 325 332 332 327 325 329 333 332 329 328 330 334 339 347 357 3 7 13 19 23 22 20 16 9 8 14 23 20 23 36 48 46 42 39 40 46 54 58 57 59 61 51 27 1 345 329 312 299 290 274 257 243 231 223 215 206 195 182 173 167 165 166 169 175 184 194 203 212 218
269 256 246 244 246 248 259 273 286 300 316 327 336 345 346 342 344 348 344 336 332 335 336 335 335 336 338 342 348 353 357 360 5 11 16 19 22 25 25 24 27 41 52 47 41 46 52 51 49 50 47 42 40 38 33 26 16 4 357 356 356 345 319 289 267 249 236 223 214 205 196 186 175 164 156 155 157 163 171 180 189 199 207 214 217
262 246 238 238 240 245 259 273 283 295 313 330 354 15 18 10 6 360 350 341 338 337 337 338 343 349 351 352 351 349 349 354 1 5 5 9 18 25 29 34 40 47 51 48 42 36 31 26 29 33 27 19 15 11 4 355 350 345 344 350 358 354 335 294 248 226 216 206 199 192 180 165 153 145 145 151 160 172 183 192 198 203 206 209 213
251 237 232 233 237 244 257 269 277 286 305 331 9 34 34 26 19 10 359 351 345 340 340 347 356 3 4 359 350 339 336 341 348 348 345 352 6 16 19 23 27 30 30 28 22 11 360 354 353 354 355 355 356 356 352 351 351 347 344 349 355 354 350 356 8 188 181 177 177 173 159 145 138 137 144 155 168 183 196 206 209 209 207 206 208
242 233 230 232 238 246 256 264 265 268 288 327 13 41 42 34 26 20 15 5 355 349 352 359 1 359 356 351 344 336 330 326 322 319 321 328 340 350 353 351 352 353 352 351 349 348 345 340 338 340 342 343 344 345 348 357 9 9 354 345 346 348 357 16 42 98 129 139 146 146 138 134 136 144 150 158 171 188 200 207 210 210 209 207 209
Height
3126 3128 3130 3132 3133 3134 3136 3137 3138 3139 3139 3139 3140 3140 3140 3140 3140 3140 3140 3141 3141 3142 3142 3142 3143 3143 3144 3144 3145 3145 3146 3147 3148 3149 3150 3151 3152 3153 3153 3154 3155 3156 3157 3158 3159 3160 3162 3163 3164 3165 3166 3167 3168 3169 3170 3171 3171 3171 3172 3172 3172 3173 3174 3175 3176 3176 3177 3177 3178 3178 3178 3178 3178 3178 3178 3178 3178 3178 3178 3177 3177 3176 3176 3176 3176
3125 3127 3128 3130 3131 3133 3135 3136 3137 3137 3138 3139 3139 3139 3139 3139 3139 3139 3139 3140 3140 3141 3141 3141 3142 3142 3143 3143 3144 3145 3145 3146 3147 3148 3149 3150 3151 3152 3153 3153 3154 3155 3156 3157 3158 3160 3161 3162 3163 3164 3165 3166 3167 3168 3169 3170 3170 3171 3171 3172 3172 3173 3173 3174 3175 3176 3176 3176 3177 3177 3177 3177 3177 3177 3177 3177 3177 3176 3176 3176 3175 3175 3174 3174 3174
3123 3125 3127 3129 3130 3132 3133 3134 3136 3137 3137 3138 3138 3138 3138 3138 3138 3138 3138 3139 3139 3140 3140 3141 3141 3141 3142 3142 3143 3144 3145 3146 3147 3148 3149 3150 3151 3151 3152 3153 3154 3155 3156 3157 3158 3159 3160 3161 3162 3163 3164 3165 3166 3167 3168 3169 3170 3170 3171 3172 3172 3172 3173 3174 3175 3175 3175 3176 3176 3176 3176 3176 3176 3176 3175 3175 3175 3175 3175 3174 3174 3173 3173 3173 3172
3122 3124 3126 3127 3129 3130 3132 3133 3134 3135 3136 3136 3136 3137 3137 3137 3137 3138 3138 3138 3139 3139 3139 3140 3140 3141 3141 3142 3142 3143 3144 3145 3146 3147 3148 3149 3150 3151 3152 3153 3154 3154 3155 3156 3157 3158 3160 3161 3162 3163 3164 3165 3166 3167 3168 3168 3169 3170 3171 3171 3171 3172 3172 3173 3174 3174 3175 3175 3175 3175 3174 3174 3174 3174 3174 3174 3173 3173 3173 3173 3172 3172 3172 3171 3171
3121 3123 3125 3126 3128 3129 3129 3130 3131 3132 3133 3134 3135 3135 3135 3136 3136 3136 3137 3138 3138 3138 3139 3139 3140 3140 3141 3141 3142 3143 3144 3145 3146 3147 3148 3149 3150 3151 3152 3153 3153 3154 3155 3156 3157 3158 3159 3160 3161 3162 3163 3164 3165 3166 3167 3168 3169 3169 3170 3170 3170 3171 3171 3172 3172 3173 3173 3173 3173 3173 3173 3173 3173 3172 3172 3172 3172 3171 3171 3171 3171 3170 3170 3170 3169
3119 3121 3123 3125 3126 3127 3128 3128 3129 3130 3131 3132 3133 3133 3134 3134 3135 3135 3136 3137 3137 3137 3138 3138 3139 3139 3140 3141 3141 3142 3143 3144 3145 3146 3147 3149 3150 3151 3152 3152 3153 3154 3155 3156 3157 3157 3158 3159 3160 3161 3162 3163 3164 3165 3166 3167 3167 3168 3168 3169 3169 3169 3170 3170 3171 3171 3171 3171 3171 3171 3171 3171 3171 3171 3171 3171 3170 3170 3170 3169 3169 3169 3168 3168 3167
3117 3118 3120 3122 3124 3125 3126 3126 3127 3128 3129 3129 3130 3131 3132 3133 3134 3134 3135 3135 3136 3136 3137 3137 3138 3138 3139 3140 3141 3142 3143 3143 3144 3145 3147 3148 3149 3150 3151 3152 3153 3154 3154 3155 3156 3157 3158 3159 3160 3160 3161 3162 3163 3164 3165 3165 3166 3166 3167 3167 3168 3168 3169 3169 3169 3170 3170 3170 3170 3170 3170 3170 3169 3169 3169 3169 3169 3169 3168 3168 3167 3167 3166 3165 3164
3113 3115 3116 3118 3121 3122 3123 3124 3125 3126 3126 3127 3128 3130 3131 3132 3133 3133 3134 3134 3135 3135 3135 3136 3137 3138 3138 3139 3140 3141 3142 3142 3143 3144 3146 3147 3148 3149 3150 3151 3152 3153 3154 3155 3156 3157 3158 3159 3160 3160 3161 3162 3162 3163 3164 3164 3165 3165 3166 3166 3167 3167 3167 3168 3168 3168 3168 3168 3168 3168 3168 3168 3168 3168 3168 3167 3167 3167 3166 3166 3165 3165 3164 3163 3162
3109 3111 3114 3116 3118 3119 3120 3122 3122 3122 3123 3124 3126 3128 3129 3130 3131 3132 3132 3133 3133 3134 3134 3135 3136 3137 3137 3138 3139 3140 3141 3141 3142 3143 3144 3146 3147 3148 3150 3151 3152 3153 3154 3155 3156 3157 3157 3158 3159 3159 3160 3161 3161 3162 3162 3163 3163 3164 3164 3165 3165 3165 3166 3166 3166 3166 3166 3166 3166 3166 3166 3166 3166 3166 3166 3166 3165 3165 3164 3163 3163 3162 3161 3160 3160
3106 3108 3110 3113 3115 3116 3118 3118 3119 3119 3121 3123 3125 3127 3128 3129 3130 3131 3131 3132 3132 3133 3133 3134 3135 3136 3136 3137 3138 3139 3140 3141 3142 3143 3144 3145 3146 3147 3149 3150 3151 3152 3153 3154 3155 3156 3157 3157 3158 3158 3159 3159 3160 3160 3161 3161 3162 3162 3162 3163 3163 3163 3163 3164 3164 3164 3164 3164 3164 3163 3163 3163 3164 3164 3163 3163 3163 3162 3162 3161 3160 3159 3159 3158 3157
3104 3106 3108 3110 3112 3114 3115 3116 3116 3118 3120 3122 3124 3125 3127 3128 3129 3130 3130 3131 3131 3132 3132 3133 3134 3135 3136 3136 3138 3139 3140 3141 3142 3143 3144 3145 3146 3147 3148 3149 3149 3150 3151 3152 3153 3154 3155 3156 3156 3157 3157 3158 3158 3159 3159 3159 3160 3160 3160 3160 3160 3161 3161 3161 3161 3161 3160 3160 3160 3160 3160 3160 3161 3160 3160 3160 3160 3159 3159 3158 3157 3156 3155 3155 3154
3102 3104 3106 3108 3110 3111 3113 3114 3115 3116 3118 3119 3121 3123 3125 3127 3128 3129 3129 3130 3130 3131 3131 3132 3133 3134 3135 3136 3137 3138 3139 3140 3141 3142 3143 3144 3145 3146 3146 3147 3148 3149 3150 3150 3151 3152 3152 3153 3154 3154 3155 3155 3156 3156 3156 3156 3157 3157 3157 3157 3157 3158 3158 3158 3157 3157 3157 3157 3157 3157 3157 3157 3157 3157 3157 3156 3156 3156 3155 3155 3154 3153 3152 3152 3150
3100 3102 3105 3107 3108 3109 3111 3113 3114 3114 3116 3118 3119 3121 3123 3125 3126 3127 3127 3128 3129 3130 3130 3131 3132 3132 3133 3134 3136 3137 3138 3138 3139 3140 3141 3142 3143 3144 3145 3146 3147 3147 3148 3148 3149 3150 3150 3151 3151 3152 3152 3152 3153 3153 3153 3153 3153 3153 3154 3154 3154 3154 3154 3154 3154 3154 3153 3153 3153 3153 3153 3153 3153 3153 3153 3153 3152 3152 3152 3151 3151 3150 3149 3148 3147
3099 3101 3103 3105 3107 3108 3110 3111 3112 3113 3114 3116 3117 3119 3121 3123 3124 3125 3125 3126 3127 3128 3129 3129 3130 3131 3132 3133 3134 3135 3136 3137 3138 3139 3140 3141 3142 3143 3143 3144 3145 3145 3146 3146 3147 3148 3148 3148 3149 3149 3150 3150 3150 3150 3150 3150 3150 3150 3150 3150 3150 3150 3150 3151 3150 3150 3150 3150 3150 3150 3150 3150 3149 3149 3149 3149 3148 3148 3148 3147 3147 3146 3145 3145 3143
3098 3099 3101 3104 3105 3107 3109 3110 3111 3112 3113 3114 3116 3118 3119 3121 3122 3123 3124 3125 3126 3126 3127 3128 3128 3129 3131 3131 3132 3133 3134 3136 3137 3138 3139 3139 3140 3141 3141 3142 3143 3143 3144 3144 3145 3145 3146 3146 3147 3147 3147 3148 3148 3147 3147 3147 3146 3146 3147 3147 3147 3147 3147 3147 3147 3146 3147 3146 3146 3146 3146 3146 3145 3145 3144 3144 3144 3144 3143 3143 3142 3142 3141 3140 3139
3098 3098 3100 3102 3104 3106 3108 3109 3109 3110 3111 3113 3115 3116 3118 3119 3120 3121 3122 3123 3124 3124 3125 3125 3126 3127 3128 3129 3130 3131 3132 3132 3133 3135 3136 3136 3137 3138 3139 3139 3140 3140 3141 3141 3142 3142 3143 3143 3144 3144 3145 3145 3144 3144 3144 3144 3143 3143 3143 3143 3143 3143 3143 3143 3143 3143 3143 3142 3142 3142 3142 3142 3141 3141 3140 3140 3140 3140 3139 3138 3138 3138 3137 3135 3134
3097 3098 3099 3101 3102 3104 3105 3106 3107 3109 3111 3112 3113 3115 3116 3117 3118 3119 3121 3122 3122 3122 3123 3123 3124 3124 3125 3126 3127 3128 3129 3129 3130 3131 3132 3133 3134 3135 3135 3136 3136 3137 3137 3138 3138 3139 3139 3139 3140 3140 3141 3141 3140 3140 3140 3139 3139 3140 3140 3139 3139 3139 3139 3140 3139 3139 3139 3138 3138 3138 3138 3137 3137 3137 3136 3136 3135 3135 3134 3134 3134 3134 3132 3130 3129
3095 3097 3098 3100 3101 3103 3104 3104 3106 3108 3109 3110 3112 3112 3113 3114 3116 3118 3119 3119 3120 3120 3120 3121 3121 3122 3122 3123 3124 3125 3126 3126 3127 3128 3129 3130 3131 3131 3132 3132 3133 3133 3134 3134 3135 3135 3135 3135 3136 3136 3136 3136 3136 3135 3135 3134 3134 3135 3135 3134 3134 3134 3135 3136 3135 3134 3133 3133 3133 3133 3132 3132 3132 3132 3132 3131 3131 3130 3130 3129 3129 3129 3127 3126 3125
3094 3096 3097 3098 3100 3101 3103 3104 3105 3105 3107 3108 3110 3110 3111 3112 3113 3115 3116 3117 3117 3118 3119 3119 3119 3120 3120 3120 3121 3122 3123 3124 3124 3125 3126 3126 3127 3128 3128 3129 3129 3130 3130 3131 3131 3131 3131 3131 3131 3131 3131 3131 3131 3131 3130 3130 3130 3130 3130 3129 3128 3129 3130 3130 3129 3128 3128 3127 3127 3127 3126 3126 3126 3126 3126 3126 3126 3125 3125 3124 3124 3123 3122 3121 3120
3094 3095 3096 3098 3099 3100 3102 3103 3104 3104 3105 3107 3108 3108 3109 3110 3111 3112 3114 3115 3115 3116 3117 3117 3117 3117 3117 3117 3118 3119 3120 3121 3121 3122 3123 3123 3123 3124 3124 3124 3125 3125 3126 3126 3127 3127 3127 3127 3126 3126 3126 3126 3126 3126 3126 3125 3125 3125 3124 3124 3124 3124 3125 3124 3123 3123 3122 3121 3121 3121 3121 3121 3120 3120 3120 3120 3120 3120 3120 3119 3119 3118 3117 3116 3116
3093 3094 3096 3097 3098 3099 3100 3101 3102 3103 3104 3105 3106 3107 3107 3108 3109 3110 3111 3112 3113 3114 3114 3114 3114 3115 3114 3114 3115 3116 3116 3117 3117 3118 3118 3119 3119 3119 3119 3120 3120 3121 3121 3121 3121 3121 3121 3121 3121 3121 3121 3120 3121 3121 3121 3120 3120 3119 3119 3119 3119 3119 3118 3117 3117 3117 3116 3115 3115 3115 3115 3115 3115 3114 3114 3114 3114 3114 3114 3113 3113 3112 3111 3111 3110
3093 3094 3095 3096 3097 3098 3099 3100 3101 3102 3103 3104 3104 3105 3105 3106 3107 3107 3108 3109 3110 3110 3110 3110 3111 3111 3111 3112 3113 3114 3114 3113 3113 3113 3113 3114 3114 3115 3115 3115 3115 3115 3115 3116 3116 3116 3116 3116 3116 3116 3116 3116 3116 3116 3116 3115 3114 3113 3113 3113 3113 3112 3111 3110 3110 3110 3110 3109 3109 3108 3108 3109 3109 3109 3109 3108 3108 3108 3107 3107 3106 3106 3105 3105 3105
3092 3093 3094 3095 3096 3097 3098 3099 3099 3100 3101 3101 3102 3102 3103 3103 3104 3104 3105 3105 3106 3106 3107 3107 3108 3108 3109 3109 3110 3110 3110 3110 3109 3109 3110 3110 3110 3110 3110 3110 3110 3110 3110 3110 3110 3110 3110 3110 3110 3110 3110 3110 3110 3110 3110 3109 3108 3108 3107 3106 3106 3105 3103 3102 3102 3103 3103 3103 3102 3102 3103 3103 3103 3103 3102 3102 3102 3102 3101 3101 3100 3100 3099 3100 3100
3091 3092 3093 3094 3094 3095 3096 3096 3097 3097 3097 3098 3098 3099 3099 3100 3100 3101 3101 3102 3102 3103 3103 3104 3104 3105 3105 3106 3106 3106 3106 3106 3106 3106 3106 3106 3106 3105 3105 3105 3104 3104 3104 3104 3104 3104 3103 3103 3103 3103 3103 3102 3102 3102 3102 3101 3101 3101 3100 3100 3098 3097 3096 3095 3095 3095 3095 3095 3095 3096 3096 3097 3097 3096 3096 3096 3095 3095 3095 3095 3095 3094 3094 3095 3095
3089 3090 3091 3092 3092 3092 3093 3093 3094 3094 3094 3095 3095 3096 3096 3097 3097 3098 3098 3099 3099 3100 3100 3100 3100 3101 3101 3101 3102 3102 3102 3102 3101 3101 3101 3101 3100 3100 3099 3098 3098 3097 3097 3097 3096 3095 3095 3094 3094 3094 3094 3093 3093 3093 3093 3092 3092 3092 3092 3091 3090 3089 3088 3087 3087 3087 3087 3087 3088 3089 3090 3090 3090 3090 3090 3089 3089 3089 3089 3089 3089 3089 3089 3090 3090
3087 3087 3088 3089 3089 3089 3090 3090 3090 3091 3091 3092 3092 3093 3093 3093 3094 3094 3094 3095 3095 3095 3096 3096 3096 3096 3096 3096 3097 3097 3096 3096 3095 3095 3095 3094 3094 3094 3094 3093 3092 3091 3090 3089 3088 3087 3086 3085 3085 3084 3084 3084 3084 3083 3083 3083 3083 3083 3082 3082 3081 3080 3080 3079 3078 3078 3078 3079 3080 3081 3082 3083 3083 3083 3083 3083 3083 3084 3084 3084 3084 3084 3084 3085 3085
3084 3085 3085 3086 3086 3086 3087 3087 3088 3088 3088 3088 3089 3089 3089 3089 3090 3090 3090 3091 3091 3091 3091 3091 3091 3091 3091 3091 3091 3091 3091 3090 3090 3089 3089 3088 3088 3087 3087 3086 3086 3085 3084 3082 3080 3079 3079 3078 3077 3075 3075 3075 3075 3074 3074 3073 3073 3073 3073 3072 3071 3071 3071 3070 3070 3070 3070 3071 3072 3073 3074 3075 3076 3076 3077 3077 3078 3078 3078 3078 3078 3079 3079 3080 3080
3082 3082 3083 3083 3084 3084 3084 3085 3085 3085 3085 3086 3086 3086 3086 3086 3086 3086 3086 3086 3087 3087 3087 3087 3087 3087 3086 3086 3086 3086 3085 3084 3084 3083 3082 3081 3081 3080 3079 3078 3077 3077 3076 3074 3073 3072 3071 3070 3069 3068 3067 3066 3066 3066 3065 3064 3064 3064 3064 3063 3063 3063 3062 3062 3061 3062 3062 3063 3064 3065 3066 3068 3069 3070 3070 3071 3071 3072 3072 3073 3073 3074 3074 3075 3075
3080 3080 3081 3081 3082 3082 3082 3082 3083 3083 3083 3083 3083 3083 3083 3083 3083 3083 3083 3083 3083 3083 3083 3082 3082 3081 3081 3080 3080 3080 3079 3078 3077 3076 3075 3075 3074 3073 3072 3071 3071 3070 3068 3067 3066 3066 3064 3063 3062 3061 3060 3059 3058 3058 3057 3056 3056 3055 3055 3055 3055 3055 3055 3054 3054 3054 3055 3056 3057 3058 3060 3061 3062 3063 3064 3064 3065 3066 3066 3067 3067 3068 3068 3069 3070
3077 3078 3078 3079 3079 3079 3079 3080 3080 3080 3080 3080 3080 3079 3079 3079 3079 3079 3079 3079 3079 3079 3078 3077 3077 3076 3076 3075 3074 3074 3073 3072 3071 3071 3070 3069 3068 3068 3067 3066 3065 3064 3062 3061 3060 3059 3058 3057 3056 3054 3053 3053 3052 3051 3050 3049 3049 3048 3048 3047 3047 3047 3047 3047 3047 3047 3048 3048 3050 3051 3053 3055 3056 3056 3057 3058 3059 3060 3061 3062 3062 3063 3063 3064 3066
3075 3075 3075 3076 3076 3076 3076 3076 3076 3076 3076 3076 3075 3075 3074 3074 3074 3074 3074 3073 3073 3073 3073 3072 3072 3072 3071 3070 3070 3069 3068 3067 3066 3066 3065 3065 3064 3063 3062 3061 3059 3058 3057 3056 3055 3054 3052 3051 3050 3049 3048 3047 3045 3044 3043 3043 3042 3042 3041 3041 3041 3040 3040 3041 3041 3041 3041 3042 3043 3045 3046 3048 3049 3050 3050 3051 3052 3053 3055 3056 3057 3058 3060 3061 3062
3072 3072 3072 3072 3072 3072 3072 3072 3072 3072 3072 3072 3071 3071 3070 3069 3069 3069 3069 3069 3068 3068 3068 3068 3068 3068 3067 3067 3066 3065 3064 3063 3062 3061 3061 3060 3059 3058 3057 3056 3055 3053 3051 3050 3049 3048 3046 3045 3044 3042 3041 3040 3039 3038 3037 3036 3035 3035 3035 3034 3034 3034 3034 3034 3035 3035 3035 3036 3037 3038 3040 3042 3043 3043 3045 3046 3046 3046 3047 3050 3052 3054 3055 3057 3058
3069 3069 3069 3069 3069 3069 3069 3068 3068 3068 3068 3068 3068 3067 3067 3066 3065 3064 3064 3064 3065 3065 3065 3064 3064 3064 3064 3063 3062 3062 3061 3060 3059 3058 3057 3056 3055 3053 3052 3050 3049 3048 3046 3045 3044 3042 3041 3039 3038 3037 3035 3034 3033 3032 3031 3029 3028 3028 3028 3027 3027 3027 3027 3028 3028 3029 3029 3030 3031 3032 3034 3035 3037 3038 3040 3041 3042 3041 3042 3043 3046 3048 3050 3052 3054
3067 3067 3067 3067 3067 3067 3067 3066 3066 3066 3065 3065 3065 3064 3064 3064 3063 3062 3061 3061 3061 3062 3062 3062 3062 3061 3060 3060 3059 3058 3057 3057 3056 3054 3053 3052 3051 3049 3047 3046 3044 3043 3042 3040 3039 3038 3036 3035 3034 3032 3031 3030 3028 3027 3026 3024 3023 3022 3021 3021 3021 3021 3021 3021 3022 3023 3024 3025 3026 3026 3028 3029 3031 3033 3034 3036 3038 3038 3038 3038 3040 3043 3046 3049 3051
3065 3065 3065 3065 3065 3065 3064 3064 3064 3064 3063 3063 3062 3062 3062 3061 3061 3061 3060 3060 3059 3059 3059 3059 3059 3058 3057 3057 3056 3055 3054 3053 3052 3051 3050 3049 3047 3046 3044 3043 3041 3039 3038 3037 3035 3034 3033 3031 3030 3029 3027 3026 3024 3023 3021 3020 3018 3017 3016 3016 3015 3015 3015 3016 3017 3017 3019 3020 3020 3021 3022 3024 3026 3027 3029 3030 3032 3034 3035 3037 3039 3041 3044 3046 3048
3063 3063 3063 3063 3063 3063 3063 3063 3062 3062 3062 3061 3061 3060 3060 3059 3059 3059 3059 3059 3058 3058 3057 3056 3056 3055 3055 3054 3053 3052 3051 3050 3049 3048 3047 3046 3045 3043 3042 3040 3039 3037 3035 3034 3033 3031 3030 3028 3027 3025 3024 3022 3020 3018 3017 3015 3014 3013 3012 3011 3011 3011 3011 3011 3011 3012 3013 3014 3015 3016 3018 3020 3022 3023 3025 3027 3029 3032 3034 3036 3038 3040 3042 3043 3045
3062 3062 3062 3062 3062 3062 3062 3062 3061 3061 3060 3059 3059 3058 3058 3058 3058 3058 3057 3057 3057 3056 3055 3055 3054 3053 3052 3051 3050 3049 3049 3048 3047 3045 3044 3043 3042 3041 3040 3038 3036 3035 3033 3032 3030 3029 3027 3025 3024 3022 3020 3018 3016 3014 3013 3011 3010 3009 3008 3007 3007 3007 3007 3007 3007 3008 3009 3009 3010 3012 3014 3016 3018 3020 3022 3025 3027 3030 3032 3034 3035 3037 3039 3040 3041
3061 3061 3061 3061 3061 3061 3061 3060 3060 3059 3059 3058 3057 3057 3057 3056 3056 3056 3056 3055 3055 3054 3054 3053 3052 3052 3050 3049 3048 3047 3046 3045 3043 3042 3041 3040 3039 3038 3037 3035 3034 3032 3031 3030 3028 3026 3024 3023 3021 3019 3017 3015 3013 3011 3009 3007 3006 3005 3005 3004 3004 3004 3004 3004 3004 3005 3005 3005 3006 3008 3010 3013 3015 3017 3020 3023 3025 3027 3029 3031 3032 3034 3035 3037 3038
3059 3059 3060 3060 3060 3059 3059 3058 3058 3057 3057 3056 3056 3056 3055 3055 3055 3054 3054 3053 3053 3052 3052 3051 3051 3050 3049 3047 3046 3045 3043 3042 3040 3039 3038 3037 3036 3035 3034 3033 3031 3030 3028 3027 3025 3024 3022 3020 3018 3016 3014 3012 3010 3008 3006 3004 3003 3003 3002 3002 3002 3002 3002 3002 3002 3002 3003 3003 3005 3007 3010 3013 3015 3017 3020 3022 3024 3025 3026 3028 3029 3031 3032 3034 3034
3058 3058 3058 3058 3058 3058 3057 3057 3056 3056 3055 3054 3054 3054 3054 3054 3053 3053 3052 3051 3051 3050 3050 3049 3048 3047 3046 3045 3044 3043 3041 3040 3038 3037 3036 3035 3034 3033 3031 3030 3029 3027 3026 3025 3023 3021 3020 3018 3016 3014 3011 3009 3007 3006 3004 3003 3002 3001 3001 3001 3001 3001 3001 3002 3002 3003 3003 3005 3007 3009 3011 3013 3015 3017 3019 3021 3022 3023 3024 3025 3027 3028 3029 3031 3031
3056 3056 3056 3056 3056 3056 3055 3055 3054 3054 3053 3053 3052 3052 3052 3052 3051 3050 3050 3049 3048 3048 3047 3047 3046 3045 3044 3043 3042 3041 3039 3038 3037 3035 3034 3033 3032 3031 3030 3028 3027 3026 3024 3023 3021 3019 3018 3016 3014 3011 3009 3007 3006 3004 3003 3002 3001 3000 3000 3000 3001 3001 3002 3003 3003 3004 3005 3007 3008 3010 3011 3013 3014 3016 3017 3019 3020 3021 3022 3023 3024 3026 3027 3028 3029
3054 3054 3054 3054 3054 3054 3054 3053 3053 3052 3051 3051 3051 3050 3050 3050 3049 3048 3047 3047 3046 3046 3045 3044 3043 3043 3042 3041 3040 3039 3038 3036 3035 3034 3032 3031 3030 3029 3028 3027 3026 3024 3023 3021 3019 3018 3016 3014 3012 3009 3007 3006 3004 3003 3002 3001 3000 3000 3000 3001 3001 3002 3003 3004 3004 3005 3006 3007 3008 3010 3011 3012 3013 3015 3016 3017 3018 3019 3020 3021 3022 3023 3024 3025 3026
3052 3053 3053 3053 3053 3052 3052 3052 3051 3050 3050 3049 3049 3048 3048 3047 3047 3046 3046 3045 3045 3044 3043 3042 3042 3041 3040 3039 3039 3038 3037 3035 3033 3032 3031 3030 3028 3027 3026 3025 3024 3023 3021 3020 3018 3016 3015 3013 3011 3009 3007 3005 3004 3002 3001 3000 3001 3001 3001 3002 3002 3003 3003 3004 3005 3005 3006 3007 3008 3009 3010 3011 3012 3013 3014 3015 3016 3017 3018 3019 3020 3021 3022 3023 3024
3051 3051 3051 3051 3051 3051 3050 3050 3049 3049 3048 3048 3047 3047 3046 3045 3045 3045 3044 3044 3043 3042 3042 3041 3040 3040 3039 3038 3037 3036 3035 3034 3032 3030 3029 3028 3027 3026 3025 3024 3023 3022 3020 3019 3017 3015 3014 3012 3011 3009 3007 3006 3004 3003 3002 3001 3002 3002 3003 3003 3003 3004 3004 3004 3005 3005 3006 3006 3007 3008 3009 3010 3011 3012 3012 3013 3014 3015 3016 3017 3018 3019 3020 3021 3023
3049 3049 3049 3049 3049 3049 3049 3049 3048 3048 3047 3046 3046 3045 3045 3044 3044 3044 3043 3042 3042 3041 3040 3040 3039 3038 3038 3037 3036 3035 3034 3032 3031 3029 3028 3026 3025 3024 3023 3022 3021 3020 3019 3018 3017 3015 3014 3013 3011 3010 3008 3007 3006 3005 3004 3004 3004 3004 3004 3005 3005 3006 3006 3006 3006 3006 3006 3006 3007 3007 3008 3009 3009 3010 3011 3011 3012 3013 3014 3015 3017 3018 3019 3020 3022
3048 3048 3048 3048 3048 3048 3048 3048 3047 3047 3046 3045 3045 3044 3044 3043 3043 3043 3042 3041 3041 3040 3039 3039 3038 3037 3036 3036 3035 3034 3033 3031 3030 3029 3027 3026 3025 3024 3023 3022 3021 3019 3018 3018 3017 3016 3015 3013 3012 3010 3009 3008 3007 3007 3007 3006 3006 3006 3007 3008 3008 3007 3007 3007 3007 3006 3006 3006 3007 3007 3007 3008 3008 3009 3009 3010 3012 3013 3014 3015 3016 3017 3018 3020 3021
3046 3046 3046 3047 3047 3047 3047 3047 3046 3046 3045 3045 3044 3043 3043 3042 3042 3041 3041 3040 3040 3039 3038 3038 3037 3036 3035 3035 3034 3033 3032 3031 3030 3029 3027 3026 3025 3024 3023 3022 3021 3020 3019 3018 3017 3016 3015 3014 3013 3012 3011 3011 3010 3010 3010 3009 3009 3009 3009 3009 3008 3008 3007 3007 3007 3007 3006 3006 3007 3007 3007 3007 3008 3009 3009 3011 3012 3013 3013 3014 3015 3016 3018 3019 3021
3044 3044 3045 3045 3045 3045 3045 3045 3045 3045 3044 3044 3043 3042 3042 3041 3041 3040 3040 3039 3039 3038 3038 3037 3036 3035 3035 3034 3033 3032 3031 3031 3030 3029 3028 3027 3025 3024 3023 3022 3021 3020 3019 3019 3018 3017 3017 3016 3015 3014 3014 3013 3013 3012 3012 3012 3011 3011 3010 3009 3009 3008 3008 3008 3007 3007 3007 3007 3007 3008 3008 3008 3009 3009 3010 3011 3012 3013 3013 3014 3015 3016 3017 3019 3020
3043 3043 3043 3044 3044 3044 3044 3044 3044 3044 3043 3043 3042 3041 3041 3040 3040 3039 3039 3038 3038 3037 3037 3036 3035 3035 3034 3033 3033 3032 3032 3031 3030 3029 3028 3027 3026 3025 3024 3023 3022 3021 3020 3019 3019 3018 3018 3017 3016 3016 3015 3015 3014 3014 3013 3013 3012 3011 3011 3010 3009 3009 3008 3008 3008 3008 3008 3008 3008 3008 3009 3009 3010 3010 3011 3012 3012 3013 3014 3014 3015 3016 3017 3018 3020
3041 3042 3042 3042 3043 3043 3043 3043 3043 3042 3042 3042 3041 3041 3040 3040 3039 3039 3038 3038 3037 3037 3036 3036 3035 3034 3034 3033 3033 3032 3032 3031 3030 3029 3029 3028 3027 3026 3025 3024 3023 3022 3021 3021 3020 3019 3019 3018 3017 3017 3016 3015 3015 3014 3014 3013 3013 3012 3011 3010 3010 3009 3009 3009 3009 3009 3009 3008 3009 3009 3009 3010 3011 3011 3012 3012 3013 3013 3014 3015 3016 3017 3017 3018 3019
3040 3040 3041 3041 3041 3041 3041 3041 3041 3041 3041 3041 3041 3040 3039 3039 3039 3038 3037 3037 3037 3036 3036 3035 3035 3034 3034 3033 3033 3032 3032 3031 3030 3029 3029 3028 3027 3026 3025 3025 3024 3023 3022 3021 3021 3020 3019 3018 3018 3017 3016 3016 3015 3015 3014 3014 3013 3012 3012 3011 3010 3010 3010 3010 3010 3009 3010 3010 3010 3010 3011 3011 3012 3012 3012 3013 3013 3014 3015 3015 3016 3017 3018 3018 3019